Location: Austin
(30.3000°N, 97.7500°W)
Time: 16:56:05
(UTC-05:00)

Daily predictions for brighter satellites

Satellite Brightness Start Highest point End
(mag) Time Altitude Azimuth Time Altitude Azimuth Time Altitude Azimuth
Cosmos 2263 Rocket 3.7 20:07:15 10° SE 20:09:59 14° E 20:12:43 10° ENE
Meteor 2-10 4.0 20:05:28 10° S 20:10:30 86° E 20:15:35 10° N
YAOGAN 1 2.9 20:07:50 10° SSE 20:11:55 46° ENE 20:16:03 10° N
CZ-4B DEB 4.2 20:06:35 10° SSE 20:12:06 76° ENE 20:17:39 10° N
Milstar 3 Cent rocket 4.0 20:14:00 10° WSW 20:18:47 30° SSW 20:26:24 10° SE
ATLAS 3B CENTAUR R/B 0.5 20:16:43 10° WSW 20:19:16 47° S 20:21:28 12° ESE
Atlas Centaur 2 1.5 20:17:16 10° WSW 20:21:06 60° SSE 20:25:43 10° E
EXPRESS MD2 2.7 20:19:23 10° WNW 20:21:28 48° SW 20:23:52 10° SSE
NOSS 0 Rocket 3.9 20:15:38 10° NNW 20:21:47 71° ENE 20:27:53 10° SSE
FUSE 4.5 20:18:29 10° WSW 20:23:38 47° S 20:28:27 12° ESE
JB-3 4.4 20:20:50 10° NNE 20:24:54 64° E 20:28:58 10° S
Cosmos 1271 Rocket 3.1 20:25:15 10° SSE 20:28:46 39° E 20:32:15 10° NNE
Cosmos 2237 Rocket 2.4 20:24:45 10° N 20:30:11 48° ENE 20:35:34 10° SE
USA 238 DEB 4.4 20:23:08 10° NNW 20:30:16 44° NE 20:37:42 10° SE
USA 238 4.4 20:23:15 10° NNW 20:30:22 44° NE 20:37:45 10° SE
Cosmos 2233 Rocket 4.3 20:24:52 10° N 20:30:44 44° E 20:36:37 10° SSE
NOSS 2-1 (E) 2.9 20:27:52 10° SSW 20:31:48 66° ESE 20:35:01 10° NE
Cosmos 1864 Rocket 4.4 20:29:20 10° N 20:35:30 84° E 20:41:36 10° S
GPS 2-04 Rocket1 3.0 20:36:14 10° W 20:39:39 52° NNW 20:42:38 13° ENE
CZ-4 R/B 1.4 20:36:06 10° SSE 20:39:49 53° ENE 20:43:37 10° N
USA 186 3.2 20:40:11 18° ENE 20:40:22 18° ENE 20:42:33 10° NNE
PAYLOAD B 4.4 20:35:09 10° S 20:40:40 80° WSW 20:46:16 10° NNW
RESURS DK-1 4.4 20:39:14 10° SE 20:39:28 11° SE 20:39:28 11° SE
CZ-4B R/B 3.2 20:37:00 10° SSE 20:42:38 73° ENE 20:48:15 10° N
Okean O Rocket 1.8 20:38:48 10° SSE 20:43:02 47° ENE 20:47:14 10° N
IUS-13 SRM-1 2.1 20:42:45 10° WSW 20:44:42 44° S 20:46:31 21° ESE
Cosmos 1850 Rocket 4.2 20:40:17 10° NNW 20:45:37 79° WSW 20:50:56 10° S
GEOS 3 Rocket 3.8 20:41:38 10° NNE 20:47:02 82° WNW 20:52:23 10° SW
PSLV R/B 4.2 20:43:09 10° S 20:47:05 65° WSW 20:51:00 10° NNW
Okean-O 4.1 20:47:25 17° ENE 20:47:52 18° ENE 20:50:49 10° NNE
Spot 1 4.4 20:42:59 10° NNE 20:48:08 81° ESE 20:53:15 10° S
Landsat 7 4.5 20:46:45 16° SE 20:49:50 33° ENE 20:54:03 10° N
Cosmos 1980 3.7 20:47:30 10° NNW 20:53:13 86° ENE 20:58:53 10° SSE
Cosmos 1470 3.2 20:50:23 10° SSE 20:54:01 38° E 20:57:39 10° NNE
SJ-6B 3.1 20:51:50 19° SE 20:54:11 41° ENE 20:57:48 10° N
Cosmos 2221 Rocket 4.2 20:51:19 10° NNE 20:55:19 34° E 20:57:01 25° ESE
BREEZE-M DEB (TANK) 1.2 20:53:20 10° NW 20:56:01 68° NE 20:56:30 47° ESE
Cosmos 968 Rocket 3.7 20:52:27 10° N 20:57:23 48° ENE 21:00:30 21° SE
Intercosmos 25 Rocket 3.8 20:57:11 10° N 21:01:41 39° ENE 21:02:34 34° ESE
CZ-2C R/B 2.0 21:01:57 10° SSW 21:04:30 26° SSE 21:04:30 26° SSE
ATLAS 2AS CENTAUR R/B 3.3 20:59:23 10° S 21:06:18 37° ESE 21:13:07 10° NE
Meteor 1-22 Rocket 4.4 21:01:51 10° S 21:07:46 55° E 21:13:39 10° NNE
SL-14 R/B 4.5 21:04:28 10° NNW 21:08:04 41° W 21:11:41 10° SSW
SWARM A 4.2 21:04:57 10° S 21:08:22 78° E 21:11:50 10° N
Feng Yun 1-1 Rocket 4.2 21:03:49 10° SSE 21:09:20 85° ENE 21:15:02 10° NNW
Cosmos 2082 3.6 21:05:56 10° SSW 21:11:32 88° WNW 21:17:10 10° NNE
Hubble Space Telescope 1.4 21:09:26 10° SW 21:13:11 36° SSE 21:13:24 36° SSE
Delta 2 Rocket 3.0 21:10:56 10° WNW 21:15:06 82° SSW 21:15:49 57° SE
Cosmos 2346 Rocket 4.4 21:09:51 10° S 21:15:53 65° E 21:22:01 10° NNE
Cosmos 2227 Rocket 4.3 21:12:28 10° WSW 21:17:17 28° WNW 21:22:08 10° N
SPOT 1/Viking Rocket 4.2 21:18:21 33° ENE 21:18:27 33° ENE 21:23:05 10° N
IGS 5A 4.4 21:19:12 10° S 21:23:09 47° W 21:27:08 10° NNW
USA 267 3.8 21:22:32 32° E 21:24:51 42° NE 21:30:56 10° NNW
Landsat 5 3.4 21:25:37 10° NNE 21:29:09 63° NE 21:29:09 63° NE
Meteor 1-24 Rocket 4.1 21:26:59 10° N 21:32:45 46° E 21:33:05 46° E
CSL-04 Rocket 3.6 21:32:28 32° SSE 21:35:09 86° ENE 21:40:42 10° NNW
Cosmos 1674 Rocket 3.5 21:36:00 10° N 21:40:19 79° W 21:40:33 75° SW
Cosmos 1464 Rocket 4.1 21:34:38 10° N 21:40:52 53° E 21:41:19 52° E
SL-16 R/B 2.1 21:39:32 10° NNW 21:45:12 66° ENE 21:45:23 66° E
Cosmos 1378 Rocket 3.9 21:42:22 10° NNW 21:46:45 62° W 21:47:26 54° SW
Cosmos 1891 Rocket 4.4 21:43:27 10° N 21:49:45 86° E 21:51:47 47° S
Resurs 1-3 4.4 21:51:10 40° SW 21:52:07 48° W 21:56:21 10° NNW
CZ-4C R/B 3.5 21:45:44 10° NNW 21:53:07 44° ENE 21:54:00 43° ENE
Cosmos 2263 Rocket 2.8 21:47:53 10° SW 21:53:18 55° WNW 21:58:46 10° N
Resurs 01 Rocket 3.0 21:58:31 31° N 21:58:31 31° N 22:00:50 10° N
SJ 16-02 3.4 22:00:16 10° N 22:01:35 19° N 22:01:35 19° N
Cosmos 1816 Rocket 4.3 22:05:33 89° E 22:05:33 89° E 22:11:41 10° N
Intelsat 5-1 Rocket 4.0 22:01:48 10° WSW 22:06:44 42° S 22:06:55 42° S
FALCON 9 R/B 4.2 22:02:03 10° W 22:08:46 47° S 22:14:52 37° SSE
Atlas Centaur 2 2.7 22:05:13 10° W 22:08:10 44° W 22:08:10 44° W
ATLAS 2AS CENTAUR R/B 4.0 22:50:01 10° WSW 22:57:09 40° NW 23:04:07 10° NNE
CZ-4C R/B 4.4 23:34:19 10° NW 23:39:11 33° WNW 23:39:11 33° WNW
